Stündliche Wetter Abdrezyakovo

Heute, 27 Juli, Dienstag

Zeit Temperatur Niederschläge Wind Luftdruck Luftfeuchtigkeit
00:00 +12°C° 0 mm 2 m/S 730 mmHg 71%
01:00 +12°C° 0 mm 2 m/S 730 mmHg 69%
02:00 +12°C° 0 mm 2 m/S 730 mmHg 68%
03:00 +12°C° 0 mm 2 m/S 730 mmHg 67%
04:00 +12°C° 0 mm 2 m/S 729 mmHg 67%
05:00 +12°C° 0 mm 3 m/S 729 mmHg 66%
06:00 +13°C° 0 mm 3 m/S 729 mmHg 65%
07:00 +14°C° 0 mm 4 m/S 729 mmHg 64%
08:00 +15°C° 0 mm 4 m/S 728 mmHg 63%
09:00 +16°C° 0 mm 5 m/S 728 mmHg 61%
10:00 +17°C° 0 mm 5 m/S 728 mmHg 60%
11:00 +17°C° 0 mm 5 m/S 728 mmHg 59%
12:00 +19°C° 0 mm 5 m/S 727 mmHg 58%
13:00 +19°C° 0 mm 6 m/S 727 mmHg 57%
14:00 +19°C° 0 mm 5 m/S 727 mmHg 58%
15:00 +19°C° 0 mm 5 m/S 727 mmHg 58%
16:00 +19°C° 0 mm 5 m/S 726 mmHg 59%
17:00 +17°C° 0.6 mm 5 m/S 726 mmHg 69%
18:00 +17°C° 0.6 mm 4 m/S 726 mmHg 80%
19:00 +15°C° 0.6 mm 4 m/S 726 mmHg 90%
20:00 +13°C° 0 mm 3 m/S 726 mmHg 91%
21:00 +13°C° 0 mm 2 m/S 726 mmHg 93%
22:00 +12°C° 0 mm 1 m/S 726 mmHg 94%
23:00 +12°C° 0 mm 1 m/S 726 mmHg 94%

Morgen, 28 Juli, Mittwoch

Zeit Temperatur Niederschläge Wind Luftdruck Luftfeuchtigkeit
00:00 +12°C° 0 mm 1 m/S 726 mmHg 93%
01:00 +10°C° 0 mm 0 m/S 726 mmHg 92%
02:00 +10°C° 0 mm 0 m/S 725 mmHg 92%
03:00 +11°C° 0 mm 1 m/S 725 mmHg 92%
04:00 +11°C° 0 mm 1 m/S 725 mmHg 91%
05:00 +12°C° 0.1 mm 1 m/S 725 mmHg 90%
06:00 +12°C° 0.1 mm 2 m/S 725 mmHg 90%
07:00 +13°C° 0.1 mm 2 m/S 725 mmHg 89%
08:00 +13°C° 0.1 mm 3 m/S 725 mmHg 77%
09:00 +14°C° 0.1 mm 4 m/S 725 mmHg 66%
10:00 +15°C° 0.1 mm 4 m/S 725 mmHg 55%
11:00 +15°C° 0 mm 4 m/S 725 mmHg 54%
12:00 +15°C° 0 mm 4 m/S 725 mmHg 54%
13:00 +15°C° 0 mm 4 m/S 725 mmHg 53%
14:00 +14°C° 0.1 mm 4 m/S 725 mmHg 58%
15:00 +14°C° 0.1 mm 5 m/S 726 mmHg 63%
16:00 +13°C° 0.1 mm 5 m/S 726 mmHg 67%
17:00 +13°C° 0 mm 4 m/S 726 mmHg 68%
18:00 +13°C° 0 mm 4 m/S 726 mmHg 68%
19:00 +12°C° 0 mm 3 m/S 726 mmHg 68%
20:00 +12°C° 0 mm 2 m/S 726 mmHg 74%
21:00 +10°C° 0 mm 2 m/S 726 mmHg 79%
22:00 +10°C° 0 mm 1 m/S 726 mmHg 84%
23:00 +9°C° 0 mm 1 m/S 726 mmHg 86%

übermorgen, 29 Juli, Donnerstag

Zeit Temperatur Niederschläge Wind Luftdruck Luftfeuchtigkeit
00:00 +9°C° 0 mm 1 m/S 726 mmHg 87%
01:00 +9°C° 0 mm 1 m/S 726 mmHg 88%
02:00 +8°C° 0 mm 1 m/S 726 mmHg 91%
03:00 +7°C° 0 mm 1 m/S 726 mmHg 93%
04:00 +5°C° 0 mm 2 m/S 726 mmHg 95%
05:00 +7°C° 0 mm 2 m/S 727 mmHg 88%
06:00 +9°C° 0 mm 2 m/S 727 mmHg 81%
07:00 +10°C° 0 mm 2 m/S 727 mmHg 74%
08:00 +12°C° 0 mm 3 m/S 727 mmHg 67%
09:00 +14°C° 0 mm 3 m/S 727 mmHg 60%
10:00 +17°C° 0 mm 4 m/S 727 mmHg 53%
11:00 +18°C° 0 mm 4 m/S 727 mmHg 49%
12:00 +19°C° 0 mm 4 m/S 726 mmHg 45%
13:00 +21°C° 0 mm 5 m/S 726 mmHg 41%
14:00 +21°C° 0 mm 4 m/S 726 mmHg 42%
15:00 +21°C° 0 mm 4 m/S 726 mmHg 43%
16:00 +21°C° 0 mm 4 m/S 725 mmHg 44%
17:00 +20°C° 0 mm 3 m/S 725 mmHg 50%
18:00 +19°C° 0 mm 3 m/S 725 mmHg 57%
19:00 +17°C° 0 mm 2 m/S 724 mmHg 64%
20:00 +17°C° 0 mm 2 m/S 724 mmHg 63%
21:00 +16°C° 0 mm 2 m/S 724 mmHg 62%
22:00 +15°C° 0 mm 2 m/S 724 mmHg 60%
23:00 +15°C° 0 mm 2 m/S 724 mmHg 67%

30 Juli, Freitag

Zeit Temperatur Niederschläge Wind Luftdruck Luftfeuchtigkeit
00:00 +14°C° 0 mm 2 m/S 724 mmHg 74%
01:00 +13°C° 0 mm 1 m/S 724 mmHg 81%
02:00 +13°C° 0 mm 1 m/S 723 mmHg 84%
03:00 +12°C° 0 mm 1 m/S 723 mmHg 86%
04:00 +12°C° 0 mm 1 m/S 723 mmHg 89%
05:00 +13°C° 0 mm 1 m/S 723 mmHg 85%
06:00 +14°C° 0 mm 1 m/S 722 mmHg 81%
07:00 +15°C° 0 mm 1 m/S 722 mmHg 77%
08:00 +18°C° 0 mm 1 m/S 722 mmHg 71%
09:00 +19°C° 0 mm 1 m/S 722 mmHg 65%
10:00 +21°C° 0 mm 1 m/S 722 mmHg 59%
11:00 +20°C° 0 mm 2 m/S 722 mmHg 59%
12:00 +21°C° 0 mm 3 m/S 722 mmHg 58%
13:00 +22°C° 0 mm 4 m/S 721 mmHg 58%
14:00 +21°C° 0 mm 4 m/S 721 mmHg 64%
15:00 +20°C° 0 mm 4 m/S 722 mmHg 70%
16:00 +19°C° 0 mm 5 m/S 722 mmHg 76%
17:00 +18°C° 0 mm 4 m/S 722 mmHg 80%
18:00 +18°C° 0 mm 3 m/S 722 mmHg 83%
19:00 +18°C° 0 mm 3 m/S 722 mmHg 87%
20:00 +17°C° 0.1 mm 3 m/S 721 mmHg 90%
21:00 +16°C° 0.1 mm 2 m/S 721 mmHg 93%
22:00 +15°C° 0.1 mm 2 m/S 721 mmHg 97%
23:00 +15°C° 0.1 mm 2 m/S 721 mmHg 96%

31 Juli, Samstag

Zeit Temperatur Niederschläge Wind Luftdruck Luftfeuchtigkeit
00:00 +16°C° 0.1 mm 3 m/S 721 mmHg 96%
01:00 +16°C° 0.1 mm 3 m/S 721 mmHg 95%
02:00 +14°C° 0 mm 3 m/S 722 mmHg 96%
03:00 +14°C° 0 mm 3 m/S 722 mmHg 97%
04:00 +14°C° 0 mm 3 m/S 722 mmHg 98%
05:00 +16°C° 0 mm 3 m/S 723 mmHg 96%
06:00 +17°C° 0 mm 3 m/S 723 mmHg 95%
07:00 +17°C° 0 mm 3 m/S 724 mmHg 93%
08:00 +19°C° 0.1 mm 4 m/S 724 mmHg 86%
09:00 +20°C° 0.1 mm 4 m/S 724 mmHg 79%
10:00 +22°C° 0.1 mm 4 m/S 724 mmHg 72%
11:00 +22°C° 0.4 mm 4 m/S 724 mmHg 70%
12:00 +23°C° 0.4 mm 4 m/S 724 mmHg 67%
13:00 +25°C° 0.4 mm 4 m/S 725 mmHg 64%
14:00 +25°C° 0.1 mm 4 m/S 725 mmHg 61%
15:00 +25°C° 0.1 mm 4 m/S 725 mmHg 58%
16:00 +26°C° 0.1 mm 3 m/S 725 mmHg 54%
17:00 +25°C° 0 mm 2 m/S 725 mmHg 60%
18:00 +23°C° 0 mm 2 m/S 725 mmHg 66%
19:00 +22°C° 0 mm 1 m/S 726 mmHg 72%
20:00 +21°C° 0 mm 1 m/S 726 mmHg 75%
21:00 +20°C° 0 mm 1 m/S 726 mmHg 78%
22:00 +19°C° 0 mm 1 m/S 726 mmHg 80%
23:00 +19°C° 0 mm 1 m/S 726 mmHg 77%

1 August, Sonntag

Zeit Temperatur Niederschläge Wind Luftdruck Luftfeuchtigkeit
00:00 +19°C° 0 mm 1 m/S 726 mmHg 74%
01:00 +20°C° 0 mm 1 m/S 726 mmHg 71%
02:00 +19°C° 0 mm 1 m/S 726 mmHg 72%
03:00 +19°C° 0 mm 1 m/S 726 mmHg 73%
04:00 +18°C° 0 mm 1 m/S 726 mmHg 74%
05:00 +19°C° 0 mm 1 m/S 727 mmHg 72%
06:00 +20°C° 0 mm 1 m/S 727 mmHg 71%
07:00 +22°C° 0 mm 1 m/S 727 mmHg 69%
08:00 +23°C° 0 mm 2 m/S 727 mmHg 63%
09:00 +25°C° 0 mm 2 m/S 727 mmHg 57%
10:00 +27°C° 0 mm 2 m/S 727 mmHg 51%
11:00 +27°C° 0 mm 3 m/S 727 mmHg 49%
12:00 +28°C° 0 mm 3 m/S 727 mmHg 46%
13:00 +29°C° 0 mm 4 m/S 727 mmHg 43%
14:00 +29°C° 0 mm 3 m/S 727 mmHg 42%
15:00 +29°C° 0 mm 3 m/S 727 mmHg 41%
16:00 +30°C° 0 mm 3 m/S 727 mmHg 41%
17:00 +28°C° 0 mm 2 m/S 726 mmHg 49%
18:00 +26°C° 0 mm 2 m/S 726 mmHg 56%
19:00 +25°C° 0 mm 2 m/S 726 mmHg 64%
20:00 +24°C° 0 mm 2 m/S 726 mmHg 65%
21:00 +23°C° 0 mm 2 m/S 725 mmHg 66%
22:00 +21°C° 0 mm 2 m/S 725 mmHg 66%
23:00 +20°C° 0 mm 2 m/S 725 mmHg 68%
Mehr zeigen

Wir brauchen deine Erlaubnis

Meteoprog und unser Service Anbieter werden persönliche Daten aufbewahren, so wie Cookies, Geräte Bezeichnung oder ähnliche Technologien von deinem Gerät und Prozess, so wie Persönliche Daten Inhalte und Werbungen, genauso wie social Media und den Verkehr zu analysieren.

  • Aufbewahrung und/oder Zugang zu deiner Geräte Informationen.

    Cookies, Geräte Bezeichnung oder andere Informationen, können aufbewahrt oder Zugang zu deinem Gerät erhalten, für den Grund, der oben angegeben wird.

  • Personalisierte Werbung und Inhalte, Messungen, Einblick in das Publikum und Produkt Entwicklung.

    Werbungen und Inhalte können personalisiert werden, basierend auf ein Profil. Mehr Daten können besser personalisierte Werbungen und Inhalte hinzufügen. Werbung und Inhalte können gezeigt und gemessen werden. Einblicke über das Publikum, welche die Werbung gesehen haben und den Inhalt, können abgeleitet werden. So wie Daten können genutzt werden, um es zu verbessern oder die Benutzer Erfahrung zu verbessern das System und die Software.

Wenn du “Ich stimme zu” klickst, erlaubst du uns, die Cookies zu benutzen die Geräte Bezeichnung, den Web oder ähnliche Technologien zu benutzen. Deine Settings, können in deinem Gerät bei deinem Browser geändert werden.

Für den bestimmten Zweck, berechtigten Interessen beruhen darauf, mehr als auf den Inhalt. Du kannst mehr darüber in unseren Privaten und Cookie Politik lesen.